When you browse on this site, cookies collect data to enhance your experience and personalize the content and advertising you see.
Visit our Privacy Policy to learn more. By continuing to use the site, you agree to this use of cookies and data.
  • In Österreich
  • Länderverzeichnis
  • Für 7 Tage
  • Wassertemperatur
  • Satellitenkarten
  • Wetterkarte
  • News
  • Widgets
  • user-avatar
    Anmelden

    Stündliche Wetter Alexandria

    Heute, 18 Januar, Freitag

    Zeit Temperatur Niederschläge Wind Luftdruck Luftfeuchtigkeit
    00:00 +15°C° 0 mm 2 m/S 767 mmHg 61%
    01:00 +14°C° 0 mm 2 m/S 767 mmHg 62%
    02:00 +14°C° 0 mm 2 m/S 766 mmHg 62%
    03:00 +14°C° 0 mm 2 m/S 766 mmHg 63%
    04:00 +14°C° 0 mm 2 m/S 766 mmHg 63%
    05:00 +14°C° 0 mm 2 m/S 766 mmHg 64%
    06:00 +14°C° 0 mm 2 m/S 766 mmHg 65%
    07:00 +13°C° 0 mm 3 m/S 766 mmHg 67%
    08:00 +13°C° 0 mm 3 m/S 766 mmHg 68%
    09:00 +14°C° 0 mm 3 m/S 767 mmHg 67%
    10:00 +14°C° 0 mm 3 m/S 767 mmHg 65%
    11:00 +16°C° 0 mm 3 m/S 767 mmHg 63%
    12:00 +16°C° 0.1 mm 3 m/S 766 mmHg 61%
    13:00 +17°C° 0.1 mm 3 m/S 766 mmHg 59%
    14:00 +18°C° 0 mm 3 m/S 766 mmHg 56%
    15:00 +17°C° 0 mm 3 m/S 766 mmHg 59%
    16:00 +17°C° 0 mm 3 m/S 766 mmHg 62%
    17:00 +16°C° 0 mm 3 m/S 766 mmHg 64%
    18:00 +16°C° 0 mm 2 m/S 766 mmHg 66%
    19:00 +15°C° 0 mm 2 m/S 766 mmHg 67%
    20:00 +15°C° 0 mm 1 m/S 766 mmHg 69%
    21:00 +15°C° 0 mm 1 m/S 766 mmHg 70%
    22:00 +14°C° 0 mm 1 m/S 766 mmHg 72%
    23:00 +14°C° 0 mm 1 m/S 767 mmHg 73%

    Morgen, 19 Januar, Samstag

    Zeit Temperatur Niederschläge Wind Luftdruck Luftfeuchtigkeit
    00:00 +13°C° 0 mm 1 m/S 767 mmHg 75%
    01:00 +13°C° 0 mm 1 m/S 766 mmHg 77%
    02:00 +13°C° 0 mm 1 m/S 766 mmHg 79%
    03:00 +12°C° 0 mm 1 m/S 766 mmHg 80%
    04:00 +12°C° 0 mm 2 m/S 766 mmHg 81%
    05:00 +12°C° 0 mm 2 m/S 766 mmHg 81%
    06:00 +12°C° 0 mm 2 m/S 766 mmHg 80%
    07:00 +12°C° 0 mm 2 m/S 766 mmHg 78%
    08:00 +12°C° 0 mm 2 m/S 766 mmHg 77%
    09:00 +14°C° 0 mm 2 m/S 766 mmHg 70%
    10:00 +16°C° 0 mm 1 m/S 767 mmHg 64%
    11:00 +18°C° 0 mm 1 m/S 767 mmHg 58%
    12:00 +19°C° 0 mm 1 m/S 766 mmHg 55%
    13:00 +19°C° 0 mm 1 m/S 766 mmHg 52%
    14:00 +20°C° 0 mm 1 m/S 765 mmHg 49%
    15:00 +18°C° 0 mm 2 m/S 765 mmHg 53%
    16:00 +18°C° 0 mm 2 m/S 765 mmHg 56%
    17:00 +17°C° 0 mm 3 m/S 765 mmHg 60%
    18:00 +16°C° 0 mm 3 m/S 765 mmHg 63%
    19:00 +16°C° 0 mm 3 m/S 765 mmHg 67%
    20:00 +14°C° 0 mm 3 m/S 766 mmHg 71%
    21:00 +13°C° 0 mm 3 m/S 766 mmHg 71%
    22:00 +13°C° 0 mm 3 m/S 766 mmHg 72%
    23:00 +12°C° 0 mm 3 m/S 766 mmHg 73%

    übermorgen, 20 Januar, Sonntag

    Zeit Temperatur Niederschläge Wind Luftdruck Luftfeuchtigkeit
    00:00 +12°C° 0 mm 3 m/S 766 mmHg 73%
    01:00 +12°C° 0 mm 3 m/S 766 mmHg 74%
    02:00 +11°C° 0 mm 3 m/S 766 mmHg 74%
    03:00 +11°C° 0 mm 3 m/S 765 mmHg 75%
    04:00 +11°C° 0 mm 3 m/S 765 mmHg 76%
    05:00 +11°C° 0 mm 4 m/S 764 mmHg 76%
    06:00 +11°C° 0 mm 3 m/S 765 mmHg 75%
    07:00 +11°C° 0 mm 3 m/S 765 mmHg 74%
    08:00 +13°C° 0 mm 2 m/S 765 mmHg 72%
    09:00 +13°C° 0 mm 3 m/S 765 mmHg 65%
    10:00 +15°C° 0 mm 4 m/S 765 mmHg 59%
    11:00 +18°C° 0 mm 4 m/S 765 mmHg 52%
    12:00 +18°C° 0 mm 3 m/S 764 mmHg 49%
    13:00 +19°C° 0 mm 2 m/S 764 mmHg 46%
    14:00 +20°C° 0 mm 1 m/S 763 mmHg 44%
    15:00 +20°C° 0 mm 1 m/S 763 mmHg 46%
    16:00 +18°C° 0 mm 2 m/S 763 mmHg 49%
    17:00 +18°C° 0 mm 3 m/S 763 mmHg 52%
    18:00 +17°C° 0 mm 3 m/S 763 mmHg 57%
    19:00 +17°C° 0 mm 3 m/S 763 mmHg 62%
    20:00 +16°C° 0 mm 2 m/S 763 mmHg 66%
    21:00 +16°C° 0 mm 3 m/S 763 mmHg 68%
    22:00 +14°C° 0 mm 3 m/S 763 mmHg 69%
    23:00 +14°C° 0 mm 3 m/S 763 mmHg 70%

    21 Januar, Montag

    Zeit Temperatur Niederschläge Wind Luftdruck Luftfeuchtigkeit
    00:00 +13°C° 0 mm 3 m/S 763 mmHg 69%
    01:00 +13°C° 0 mm 3 m/S 763 mmHg 69%
    02:00 +13°C° 0 mm 2 m/S 762 mmHg 68%
    03:00 +13°C° 0 mm 2 m/S 762 mmHg 68%
    04:00 +13°C° 0 mm 1 m/S 762 mmHg 68%
    05:00 +13°C° 0 mm 1 m/S 762 mmHg 68%
    06:00 +13°C° 0 mm 1 m/S 763 mmHg 66%
    07:00 +13°C° 0 mm 1 m/S 763 mmHg 64%
    08:00 +14°C° 0 mm 1 m/S 763 mmHg 62%
    09:00 +16°C° 0 mm 1 m/S 763 mmHg 55%
    10:00 +18°C° 0 mm 2 m/S 763 mmHg 48%
    11:00 +19°C° 0 mm 2 m/S 763 mmHg 41%
    12:00 +20°C° 0 mm 2 m/S 763 mmHg 40%
    13:00 +20°C° 0 mm 2 m/S 762 mmHg 39%
    14:00 +21°C° 0 mm 2 m/S 762 mmHg 38%
    15:00 +20°C° 0 mm 2 m/S 762 mmHg 43%
    16:00 +19°C° 0 mm 2 m/S 762 mmHg 48%
    17:00 +18°C° 0 mm 2 m/S 762 mmHg 53%
    18:00 +17°C° 0 mm 2 m/S 763 mmHg 58%
    19:00 +16°C° 0 mm 2 m/S 763 mmHg 63%
    20:00 +16°C° 0 mm 2 m/S 764 mmHg 67%
    21:00 +15°C° 0 mm 2 m/S 764 mmHg 70%
    22:00 +15°C° 0 mm 2 m/S 764 mmHg 72%
    23:00 +14°C° 0 mm 2 m/S 764 mmHg 75%

    22 Januar, Dienstag

    Zeit Temperatur Niederschläge Wind Luftdruck Luftfeuchtigkeit
    00:00 +14°C° 0 mm 2 m/S 764 mmHg 76%
    01:00 +14°C° 0 mm 1 m/S 763 mmHg 78%
    02:00 +13°C° 0 mm 1 m/S 763 mmHg 79%
    03:00 +13°C° 0 mm 1 m/S 763 mmHg 79%
    04:00 +13°C° 0 mm 1 m/S 763 mmHg 79%
    05:00 +13°C° 0 mm 1 m/S 763 mmHg 79%
    06:00 +13°C° 0 mm 1 m/S 763 mmHg 77%
    07:00 +13°C° 0 mm 1 m/S 763 mmHg 75%
    08:00 +14°C° 0 mm 1 m/S 764 mmHg 73%
    09:00 +15°C° 0 mm 1 m/S 764 mmHg 66%
    10:00 +18°C° 0 mm 1 m/S 764 mmHg 58%
    11:00 +18°C° 0 mm 0 m/S 764 mmHg 51%
    12:00 +20°C° 0 mm 1 m/S 763 mmHg 48%
    13:00 +20°C° 0 mm 2 m/S 763 mmHg 44%
    14:00 +20°C° 0 mm 3 m/S 762 mmHg 41%
    15:00 +19°C° 0 mm 3 m/S 762 mmHg 45%
    16:00 +19°C° 0 mm 3 m/S 762 mmHg 49%
    17:00 +18°C° 0 mm 3 m/S 762 mmHg 53%
    18:00 +17°C° 0 mm 3 m/S 762 mmHg 55%
    19:00 +16°C° 0 mm 2 m/S 763 mmHg 58%
    20:00 +15°C° 0 mm 2 m/S 763 mmHg 61%
    21:00 +15°C° 0 mm 2 m/S 763 mmHg 62%
    22:00 +15°C° 0 mm 1 m/S 763 mmHg 64%
    23:00 +14°C° 0 mm 1 m/S 763 mmHg 65%

    23 Januar, Mittwoch

    Zeit Temperatur Niederschläge Wind Luftdruck Luftfeuchtigkeit
    00:00 +14°C° 0 mm 1 m/S 763 mmHg 67%
    01:00 +13°C° 0 mm 1 m/S 762 mmHg 69%
    02:00 +13°C° 0 mm 1 m/S 762 mmHg 71%
    03:00 +13°C° 0 mm 2 m/S 762 mmHg 72%
    04:00 +13°C° 0 mm 2 m/S 762 mmHg 74%
    05:00 +12°C° 0 mm 2 m/S 761 mmHg 75%
    06:00 +12°C° 0 mm 2 m/S 762 mmHg 73%
    07:00 +13°C° 0 mm 2 m/S 762 mmHg 72%
    08:00 +12°C° 0 mm 3 m/S 762 mmHg 70%
    09:00 +14°C° 0 mm 3 m/S 762 mmHg 64%
    10:00 +16°C° 0 mm 3 m/S 762 mmHg 57%
    11:00 +18°C° 0 mm 3 m/S 762 mmHg 51%
    12:00 +19°C° 0 mm 2 m/S 761 mmHg 47%
    13:00 +20°C° 0 mm 2 m/S 760 mmHg 43%
    14:00 +21°C° 0 mm 2 m/S 759 mmHg 39%
    15:00 +21°C° 0 mm 2 m/S 759 mmHg 41%
    16:00 +20°C° 0 mm 3 m/S 758 mmHg 44%
    17:00 +20°C° 0 mm 3 m/S 758 mmHg 47%
    18:00 +19°C° 0 mm 4 m/S 758 mmHg 49%
    19:00 +17°C° 0 mm 5 m/S 758 mmHg 51%
    20:00 +16°C° 0 mm 5 m/S 757 mmHg 54%
    21:00 +15°C° 0 mm 5 m/S 757 mmHg 53%
    22:00 +15°C° 0 mm 6 m/S 757 mmHg 53%
    23:00 +14°C° 0 mm 6 m/S 756 mmHg 52%
    Mehr zeigen